[[{"header":{"parameterUnit":"m.s-1","parameterCategory":1,"la1":30.2991,"la2":30.254,"lo1":-89.0895,"lo2":-89.0444,"dy":0.0017,"dx":0.0017,"nx":28,"ny":28,"refTime":"2025-04-09T21:00:00:Z","depth":0,"parameterNumber":2,"parameterNumberName":"U-component_of_WINDS"},"data":[0,0,0,0,0,0,0,0,0,0,0,0,0,0,0,0,0,0,0,0,0,0,0,0,0,0,0,0,0,0,0,0,0,0,0,0,0,0,0,0,0,0,0,0,0,0,0,0,0,0,0,0,0,0,0,0,0,0,6.4217,6.4218,0,6.4289,6.429,6.4291,6.413,6.4125,6.4119,6.4114,6.4192,6.4199,6.4206,0,0,0,0,0,0,0,0,0,0,0,0,0,6.3944,6.395,6.4217,6.4218,6.4219,6.4289,6.429,6.4291,6.4131,6.4124,6.4118,6.4112,6.419,6.4198,6.4206,0,0,0,0,0,0,0,0,0,0,0,0,0,6.4044,6.3952,6.4217,6.4147,6.4142,6.4289,6.429,6.4291,6.4132,6.4124,6.4116,6.4109,6.4187,6.4197,6.4207,6.4426,0,0,6.4239,6.4243,0,0,0,0,0,0,0,0,6.4039,6.4054,6.4157,6.4152,6.4146,6.4192,6.4222,6.4337,6.4134,6.4136,6.4114,6.4105,6.4199,6.4208,6.4238,6.443,6.4433,6.424,6.4246,6.4251,6.4253,0,0,0,0,0,0,0,6.4032,6.405,6.4245,6.4158,6.4152,6.4113,6.4119,6.4243,6.421,6.4135,6.4124,6.4134,6.4194,6.4229,6.4239,6.4434,6.424,6.4249,6.4255,6.4259,6.4809,6.4817,0,0,0,0,0,0,6.4033,6.4046,6.4243,6.4248,6.4072,6.4125,6.4131,6.4186,6.4208,6.4204,6.4141,6.4126,6.4215,6.4227,6.4241,6.4498,6.425,6.426,6.4266,6.4801,6.4811,6.482,0,0,0,0,0,0,6.4028,6.4053,6.424,6.4144,6.4165,6.4138,6.42,6.4191,6.4225,6.4212,6.4206,6.4181,6.4209,6.4226,6.4381,6.4499,6.4265,6.4274,6.4791,6.4804,6.4815,6.5016,0,0,0,0,0,0,6.4021,6.4052,6.4134,6.4147,6.417,6.4379,6.4207,6.4198,6.4243,6.4225,6.4249,6.4246,6.4204,6.4367,6.4391,6.4509,6.4282,6.478,6.4797,6.4811,6.4998,6.5033,6.5063,0,0,0,0,0,6.4012,6.4188,6.4139,6.4164,6.4272,6.4386,6.44,6.4348,6.4253,6.4336,6.4328,6.4245,6.4482,6.4384,6.441,6.4533,6.4772,6.4792,6.481,6.4984,6.5027,6.5063,0,0,0,0,0,0,6.4192,6.4189,6.4134,6.432,6.4354,6.4359,6.4461,6.4395,6.4458,6.4439,6.4372,6.4379,6.4547,6.4555,6.4446,6.4746,6.4611,6.4636,6.4734,6.4775,6.4807,6.4801,6.4291,0,0,0,0,0,6.4253,6.4344,6.4337,6.4502,6.4522,6.4489,6.4537,6.4493,6.4527,6.4541,6.4544,6.4581,6.4663,6.4719,6.4795,6.4999,6.5002,6.5096,6.5129,6.5155,6.5178,6.5286,6.5328,6.4882,6.4882,6.4882,0,0,6.438,6.439,6.4452,6.4538,6.4559,6.4657,6.4503,6.4612,6.4683,6.4558,6.4704,6.4708,6.4744,6.4925,6.5004,6.4937,6.5302,6.518,6.5201,6.5209,6.531,6.5352,6.539,6.4895,6.4893,6.4891,0,0,6.4662,6.4678,6.4817,6.4841,6.4876,6.4853,6.4886,6.4901,6.4898,6.5043,6.4951,6.5036,6.518,6.5209,6.5244,6.5537,6.5463,6.5563,6.5733,6.584,6.5875,6.5905,6.601,6.6048,6.5586,6.5586,6.5586,0,6.4816,6.4957,6.4897,6.5012,6.5053,6.4943,6.5083,6.511,6.5169,6.52,6.5123,6.53,6.5318,6.5503,6.5574,6.5606,6.5642,6.556,6.5874,6.5904,6.5932,6.6031,6.607,6.5598,6.5597,6.5595,6.5594,0,6.5145,6.5245,6.5353,6.541,6.5463,6.5591,6.555,6.5611,6.5564,6.555,6.5699,6.5715,6.5792,6.5832,6.5788,6.6012,6.5969,6.5885,6.5748,6.5988,6.6079,6.6117,6.5615,6.5611,6.5607,6.5604,0,0,6.5542,6.5564,6.5604,6.5629,6.5658,6.5735,6.5858,6.5931,6.5985,6.6029,6.613,6.6254,6.6176,6.6215,6.6172,6.6266,6.6496,6.617,6.6169,6.6229,6.6744,6.6807,6.6852,6.6448,6.6455,6.646,6.6741,0,6.582,6.6029,6.5979,6.6186,6.6278,6.6175,6.6281,6.6312,6.6302,6.6379,6.6368,6.6457,6.6347,6.637,6.6457,6.645,6.6599,6.6429,6.6542,6.6547,6.6535,6.69,6.6967,6.7231,6.6776,6.6782,6.6787,0,6.6172,6.6228,6.6445,6.6459,6.6496,6.6593,6.6655,6.673,6.6763,6.6749,6.6792,6.6732,6.6854,6.6717,6.6884,6.677,6.6813,6.6817,6.6825,6.6834,6.6681,6.6918,6.7314,6.7353,6.6842,6.6838,6.6834,0,6.6439,6.6569,6.6715,6.6739,6.676,6.6831,6.6843,6.6867,6.6915,6.697,6.7,6.7071,6.7109,6.7165,6.7125,6.7029,6.7299,6.7159,6.7292,6.7293,6.7353,6.735,6.7761,6.7382,6.7382,6.7381,6.738,0,6.6755,6.6892,6.6835,6.6926,6.7076,6.7016,6.7167,6.7167,6.719,6.7279,6.7195,6.728,6.7222,6.7303,6.7273,6.7416,6.7434,6.7427,6.7417,6.7434,6.7435,6.7461,6.7442,6.7391,6.7389,6.7387,6.7385,0,6.7079,6.7047,6.7199,6.7206,6.721,6.7321,6.7327,6.7411,6.7394,6.7508,6.7531,6.7506,6.7597,6.7562,6.7659,6.7639,6.7822,6.7788,6.7811,6.7802,6.7936,6.7924,6.8379,6.8435,6.8021,6.8025,6.8028,0,6.7282,6.7384,6.7402,6.7454,6.7472,6.7559,6.7606,6.7552,6.7605,6.765,6.7729,6.7812,6.7875,6.8025,6.8016,6.809,6.8057,6.8212,6.8068,6.8082,6.8059,6.8053,6.8063,6.8241,6.8245,6.8249,6.8252,0,6.7646,6.7625,6.7696,6.7762,6.7821,6.7871,6.7913,6.7961,6.7909,6.7974,6.8065,6.8114,6.8212,6.8296,6.8362,6.8375,6.8306,6.8298,6.8332,6.8351,6.8359,6.8356,6.7888,6.8288,6.8284,6.8281,6.828,6.8278,6.7915,6.8001,6.8027,6.8109,6.8135,6.8176,6.8255,6.8248,6.8323,6.8397,6.8361,6.8467,6.8497,6.8578,6.8601,6.8683,6.8623,6.8673,6.8686,6.8699,6.8716,6.8346,6.8695,6.8694,6.8693,6.8692,6.8691,0,6.8275,6.8286,6.8362,6.8423,6.8488,6.8416,6.8459,6.8518,6.8612,6.8645,6.8709,6.8813,6.8894,6.8891,6.8966,6.9033,6.9003,6.9054,6.9048,6.9052,6.8766,6.8728,6.9077,6.9077,6.9077,6.9077,6.9076,6.9076,6.8469,6.861,6.8593,6.8746,6.8756,6.8858,6.8889,6.8927,6.8953,6.9073,6.9139,6.9136,6.9155,6.923,6.9302,6.9299,6.933,6.9393,6.9379,6.9111,6.9073,6.9036,6.9,6.9401,6.9401,6.9658,6.9661,6.9662]},{"header":{"parameterUnit":"m.s-1","parameterCategory":1,"la1":30.2991,"la2":30.254,"lo1":-89.0895,"lo2":-89.0444,"dy":0.0017,"dx":0.0017,"nx":28,"ny":28,"refTime":"2025-04-09T21:00:00:Z","depth":0,"parameterNumber":3,"parameterNumberName":"V-component_of_WINDS"},"data":[0,0,0,0,0,0,0,0,0,0,0,0,0,0,0,0,0,0,0,0,0,0,0,0,0,0,0,0,0,0,0,0,0,0,0,0,0,0,0,0,0,0,0,0,0,0,0,0,0,0,0,0,0,0,0,0,0,0,1.3759,1.376,0,1.3868,1.3869,1.387,1.3898,1.3898,1.3897,1.3896,1.401,1.4013,1.4017,0,0,0,0,0,0,0,0,0,0,0,0,0,1.3576,1.358,1.3759,1.376,1.3761,1.3867,1.3869,1.387,1.3898,1.3898,1.3897,1.3896,1.4009,1.4013,1.4017,0,0,0,0,0,0,0,0,0,0,0,0,0,1.3667,1.3581,1.3758,1.3788,1.3792,1.3867,1.3869,1.3871,1.3899,1.3898,1.3897,1.3896,1.4007,1.4012,1.4018,1.4072,0,0,1.4035,1.4037,0,0,0,0,0,0,0,0,1.3662,1.3674,1.3782,1.3786,1.3791,1.3868,1.3846,1.3938,1.3899,1.3858,1.3896,1.3895,1.3964,1.3973,1.3995,1.4077,1.4082,1.4035,1.4038,1.4041,1.4042,0,0,0,0,0,0,0,1.3656,1.367,1.3802,1.3784,1.3789,1.3796,1.3808,1.3864,1.3915,1.3862,1.3864,1.3876,1.3966,1.399,1.3998,1.4084,1.4035,1.404,1.4043,1.4045,1.4216,1.4217,0,0,0,0,0,0,1.3644,1.3664,1.3798,1.3805,1.3722,1.3801,1.3814,1.3844,1.3915,1.3925,1.3877,1.3877,1.3981,1.3992,1.4002,1.407,1.4041,1.4046,1.4049,1.4215,1.4216,1.4217,0,0,0,0,0,0,1.364,1.3656,1.3794,1.3735,1.3753,1.3805,1.3839,1.3847,1.3871,1.3926,1.3936,1.3892,1.3981,1.3995,1.4054,1.4075,1.4048,1.4053,1.4213,1.4215,1.4217,1.4207,0,0,0,0,0,0,1.3635,1.3654,1.3675,1.3736,1.3756,1.3844,1.384,1.385,1.3881,1.3882,1.3943,1.3953,1.3981,1.4046,1.406,1.4082,1.4058,1.4212,1.4214,1.4216,1.4206,1.4208,1.421,0,0,0,0,0,1.3628,1.3669,1.3676,1.3692,1.3784,1.3845,1.3857,1.3888,1.3882,1.3904,1.3939,1.3951,1.407,1.4052,1.4068,1.4092,1.421,1.4213,1.4216,1.4204,1.4208,1.421,0,0,0,0,0,0,1.361,1.3677,1.3686,1.3747,1.379,1.3849,1.3878,1.3891,1.3937,1.3936,1.3974,1.3987,1.4044,1.4074,1.4053,1.4148,1.414,1.4146,1.4126,1.413,1.4132,1.4124,1.4062,0,0,0,0,0,1.3613,1.3657,1.3713,1.3761,1.3782,1.3826,1.3854,1.3874,1.3921,1.3939,1.3979,1.4024,1.4071,1.4102,1.4149,1.421,1.4224,1.4234,1.4236,1.4238,1.4243,1.4277,1.4282,1.4227,1.4227,1.4226,0,0,1.362,1.3662,1.3687,1.3759,1.3794,1.3839,1.3841,1.3889,1.3923,1.3947,1.4005,1.4036,1.4089,1.4149,1.4177,1.4175,1.4261,1.4242,1.4242,1.4247,1.428,1.4286,1.429,1.4228,1.4228,1.4228,0,0,1.3655,1.3691,1.3735,1.3771,1.3824,1.3853,1.3863,1.3921,1.3942,1.4001,1.402,1.4061,1.4142,1.4179,1.4208,1.4256,1.4269,1.4271,1.4283,1.4316,1.432,1.4324,1.4342,1.4347,1.4275,1.4275,1.4275,0,1.3657,1.3725,1.3757,1.3803,1.3834,1.3857,1.3902,1.3935,1.4001,1.4022,1.4019,1.4121,1.4158,1.4227,1.4239,1.4262,1.4275,1.4264,1.4317,1.4321,1.4326,1.4343,1.4349,1.4275,1.4275,1.4275,1.4275,0,1.3725,1.3771,1.38,1.3863,1.3897,1.3943,1.3982,1.4012,1.403,1.4059,1.4119,1.4164,1.422,1.4238,1.4256,1.431,1.4306,1.4309,1.4303,1.433,1.4347,1.4353,1.4275,1.4275,1.4275,1.4275,0,0,1.3752,1.3831,1.3841,1.387,1.393,1.3967,1.4013,1.4068,1.4093,1.4138,1.4178,1.4246,1.4249,1.4282,1.4304,1.4333,1.4368,1.4333,1.4335,1.4338,1.443,1.4427,1.4434,1.4377,1.4378,1.4379,1.4426,0,1.3795,1.3878,1.3908,1.3976,1.402,1.4042,1.4082,1.4124,1.4152,1.4194,1.4226,1.4273,1.4273,1.4293,1.4323,1.4358,1.4387,1.4355,1.4415,1.4416,1.4401,1.4443,1.4441,1.4483,1.4432,1.4434,1.4434,0,1.3856,1.3901,1.3973,1.4028,1.4047,1.4083,1.4135,1.4174,1.4222,1.4241,1.4277,1.4297,1.4347,1.4336,1.4406,1.4383,1.4409,1.443,1.4432,1.4439,1.4427,1.4451,1.4497,1.4503,1.4445,1.4444,1.4443,0,1.3869,1.3947,1.4001,1.4024,1.409,1.4114,1.4142,1.4189,1.422,1.4265,1.4285,1.4336,1.4364,1.4403,1.4436,1.4426,1.4502,1.4495,1.4519,1.4519,1.4535,1.4533,1.4585,1.4551,1.4551,1.4551,1.4551,0,1.3913,1.3957,1.4007,1.404,1.409,1.4123,1.4172,1.4201,1.4243,1.4282,1.4304,1.4341,1.4382,1.4424,1.4451,1.4504,1.4516,1.4533,1.4539,1.4531,1.4529,1.4549,1.4547,1.4553,1.4553,1.4552,1.4552,0,1.3936,1.3971,1.4031,1.4087,1.4103,1.4137,1.4185,1.4218,1.4247,1.4297,1.431,1.4356,1.4407,1.4443,1.4509,1.4526,1.4583,1.459,1.4567,1.457,1.4592,1.459,1.4659,1.467,1.4628,1.4629,1.4629,0,1.3962,1.3996,1.4056,1.4083,1.4111,1.4156,1.4187,1.4221,1.4253,1.4309,1.4335,1.4387,1.4431,1.451,1.455,1.46,1.4608,1.4629,1.4616,1.4606,1.4608,1.4606,1.4609,1.4631,1.4631,1.4631,1.4631,0,1.4005,1.402,1.4064,1.4114,1.415,1.4191,1.4232,1.4253,1.4295,1.4329,1.4381,1.4414,1.4481,1.4532,1.4586,1.4616,1.4631,1.4635,1.4643,1.4635,1.462,1.4628,1.4572,1.4633,1.4633,1.4633,1.4633,1.4633,1.403,1.4061,1.4108,1.4155,1.419,1.4228,1.4261,1.4294,1.4337,1.4394,1.4411,1.4465,1.4512,1.4585,1.4616,1.4658,1.4657,1.4669,1.4672,1.4675,1.4674,1.4613,1.4668,1.4668,1.4668,1.4668,1.4668,0,1.4074,1.4105,1.4148,1.4205,1.4242,1.4252,1.4298,1.4329,1.4375,1.4417,1.4459,1.4518,1.4568,1.4611,1.4663,1.4688,1.4696,1.4701,1.4699,1.4706,1.4672,1.466,1.4693,1.4693,1.4693,1.4693,1.4693,1.4693,1.4101,1.4154,1.4175,1.4245,1.4276,1.4328,1.4353,1.4388,1.4422,1.4486,1.4528,1.4555,1.4598,1.4652,1.4698,1.471,1.4728,1.473,1.4743,1.4711,1.4708,1.4705,1.4694,1.4734,1.4734,1.4774,1.4774,1.4774]}]]